EW5523 Weather Reports


time (UTC)temp
F
wind
direction
speed
knots
gust
knots
rain 1hr
in
rain 24hr
in
rain mn
in
humidity
%
barometer
mb
20260509180020 46 27 0.0 7.0 0.00 0.01 0.00 55 1017.5
20260509174537 47 310 2.6 8.7 0.00 0.01 0.00 54 1017.2
20260509173019 47 343 0.0 7.0 0.00 0.01 0.00 51 1017.1
20260509171517 48 303 1.7 11.3 0.00 0.01 0.00 48 1017.1
20260509170016 48 308 0.0 5.2 0.00 0.01 0.00 45 1016.9
20260509164513 48 322 0.0 1.7 0.00 0.01 0.00 45 1016.7
20260509163013 49 320 0.0 8.7 0.00 0.01 0.00 43 1016.4
20260509161525 50 322 0.9 6.1 0.00 0.01 0.00 41 1016.4
20260509160010 51 289 0.0 7.0 0.00 0.02 0.00 39 1016.4
20260509154510 51 322 0.0 4.3 0.00 0.02 0.00 39 1016.2
20260509153014 52 315 0.9 8.7 0.00 0.02 0.00 39 1016.2
20260509151511 52 318 0.0 6.1 0.00 0.02 0.00 40 1016.2
20260509150021 52 317 0.0 7.0 0.00 0.02 0.00 40 1016.2
20260509144508 51 296 0.9 7.0 0.00 0.02 0.00 39 1016.3
20260509143008 52 280 0.9 9.6 0.00 0.02 0.00 36 1016.2
20260509141506 53 347 1.7 8.7 0.00 0.02 0.00 37 1016.2
20260509140006 53 27 0.0 7.0 0.00 0.02 0.00 39 1016.2
20260509134506 53 4 0.0 6.1 0.00 0.02 0.00 40 1016.3
20260509133007 52 22 0.0 8.7 0.00 0.02 0.00 39 1016.3
20260509131504 53 326 0.9 10.4 0.00 0.02 0.00 38 1016.3
20260509130004 53 337 0.9 10.4 0.00 0.02 0.00 39 1016.4
20260509124503 53 295 0.9 7.8 0.00 0.02 0.00 40 1016.4
20260509123003 53 301 0.0 7.0 0.00 0.02 0.00 41 1016.4
20260509121502 52 337 0.9 11.3 0.00 0.02 0.00 42 1016.3
20260509120001 51 332 0.9 10.4 0.00 0.02 0.00 42 1016.4
20260509114600 51 310 1.7 10.4 0.00 0.02 0.00 41 1016.2
20260509113106 53 299 2.6 17.4 0.00 0.02 0.00 40 1015.7
20260509111557 52 273 1.7 12.2 0.00 0.02 0.00 43 1015.9
20260509110057 51 45 2.6 11.3 0.00 0.02 0.00 45 1016.0
20260509104556 50 48 0.0 8.7 0.00 0.02 0.00 46 1016.0
20260509103102 49 320 0.9 17.4 0.00 0.02 0.00 47 1015.8
20260509101554 50 342 1.7 11.3 0.00 0.02 0.00 47 1015.9
20260509100056 49 327 2.6 13.9 0.00 0.02 0.00 47 1015.8
20260509094550 49 33 3.5 19.1 0.00 0.02 0.00 49 1015.7
20260509093048 49 359 4.3 13.0 0.00 0.02 0.00 49 1015.5
20260509091546 48 47 3.5 11.3 0.00 0.02 0.00 55 1015.5
20260509090053 47 62 0.0 12.2 0.00 0.02 0.00 59 1015.2
20260509084543 48 8 4.3 15.6 0.00 0.02 0.00 53 1015.0
20260509083046 48 60 7.8 18.2 0.00 0.02 0.00 54 1014.8
20260509081541 47 77 5.2 16.5 0.00 0.02 0.00 54 1014.5
20260509080041 47 310 0.0 13.0 0.00 0.02 0.00 56 1014.2
20260509074539 46 334 3.5 16.5 0.00 0.02 0.00 59 1014.0
20260509073036 46 306 4.3 17.4 0.00 0.02 0.00 59 1013.7
20260509071534 44 39 1.7 13.9 0.00 0.02 0.00 66 1013.7
20260509070031 45 37 4.3 14.8 0.00 0.02 0.00 63 1013.4
20260509064530 45 305 2.6 13.9 0.00 0.02 0.00 64 1013.2
20260509063030 44 316 0.0 13.0 0.00 0.02 0.00 67 1013.1
20260509061528 44 330 3.5 15.6 0.00 0.02 0.00 68 1012.9
20260509060030 45 307 4.3 13.0 0.00 0.02 0.00 65 1012.7
20260509054521 44 326 4.3 14.8 0.00 0.02 0.00 65 1012.4
20260509053019 44 311 3.5 12.2 0.00 0.02 0.00 67 1012.0
20260509051517 44 291 4.3 13.9 0.00 0.02 0.00 67 1011.9
20260509050037 43 337 0.9 12.2 0.00 0.02 0.00 69 1011.8
20260509044514 43 318 3.5 15.6 0.00 0.02 0.00 70 1011.5
20260509043010 43 317 0.9 11.3 0.00 0.02 0.00 72 1011.2
20260509041507 43 291 3.5 13.9 0.00 0.02 0.00 73 1011.0
20260509040005 43 343 4.3 14.8 0.00 0.02 0.00 73 1010.4
20260509034502 43 306 1.7 13.0 0.00 0.02 0.00 76 1010.4
20260509033002 43 308 4.3 15.6 0.00 0.02 0.00 76 1010.2
20260509031620 43 340 3.5 14.8 0.00 0.02 0.00 77 1009.9
20260509030057 43 297 2.6 12.2 0.00 0.02 0.00 76 1009.7
20260509024553 43 314 2.6 10.4 0.00 0.02 0.00 73 1009.4
20260509023054 44 328 2.6 13.9 0.00 0.02 0.00 73 1009.0
20260509021548 43 354 1.7 15.6 0.00 0.02 0.00 74 1008.8
20260509020045 44 243 0.9 13.0 0.00 0.02 0.00 74 1008.7
20260509014544 43 314 2.6 11.3 0.00 0.02 0.00 75 1008.5
20260509013045 43 312 1.7 12.2 0.00 0.02 0.00 76 1008.3
20260509011542 44 299 1.7 15.6 0.00 0.02 0.00 75 1008.0
20260509010035 44 301 0.9 7.0 0.00 0.02 0.00 75 1008.0
20260509004541 45 308 2.6 13.0 0.00 0.02 0.00 75 1007.8
20260509003030 46 323 4.3 14.8 0.00 0.02 0.00 74 1007.8
20260509001527 46 288 1.7 13.9 0.00 0.02 0.00 77 1007.7
20260509000025 46 281 3.5 13.0 0.00 0.02 0.00 76 1007.7
20260508234520 47 332 1.7 13.9 0.00 0.02 0.00 79 1007.6
20260508233015 49 294 2.6 13.0 0.00 0.02 0.00 82 1007.3
20260508231511 50 305 2.6 10.4 0.00 0.02 0.00 81 1006.9
20260508230009 50 295 3.5 11.3 0.00 0.02 0.00 82 1006.8
20260508224506 51 300 1.7 12.2 0.00 0.02 0.00 83 1006.7
20260508223004 52 290 1.7 10.4 0.00 0.02 0.00 84 1006.5
20260508221600 53 299 0.9 6.1 0.00 0.02 0.00 87 1006.3
20260508220055 54 327 1.7 9.6 0.00 0.02 0.00 89 1006.1
20260508214608 54 309 0.9 7.0 0.00 0.02 0.00 89 1006.0
20260508213101 54 306 1.7 9.6 0.00 0.02 0.00 89 1005.9
20260508211556 54 300 1.7 12.2 0.00 0.02 0.00 89 1005.9
20260508210049 55 296 0.9 10.4 0.00 0.02 0.00 88 1005.9
20260508204545 56 18 0.9 9.6 0.00 0.02 0.00 87 1006.0
20260508203049 57 309 0.9 5.2 0.00 0.02 0.00 87 1005.9
20260508201553 57 312 0.0 5.2 0.00 0.02 0.00 89 1005.8
20260508200043 57 286 0.0 4.3 0.00 0.02 0.02 90 1005.5
20260508194636 57 280 0.0 6.1 0.00 0.02 0.02 89 1005.2
20260508193035 58 289 0.0 0.0 0.00 0.02 0.02 88 1005.0
20260508191535 58 274 0.0 0.0 0.00 0.02 0.02 88 1005.0
20260508190041 58 286 0.0 0.0 0.00 0.02 0.02 88 1004.8
20260508184535 58 287 0.0 0.0 0.00 0.02 0.02 87 1004.8
20260508183036 58 303 0.0 2.6 0.00 0.02 0.02 86 1004.6
20260508181552 59 12 0.0 3.5 0.00 0.02 0.02 85 1004.1